Location: Chuathbaluk
(61.5726°N, 159.2454°W)
Time: 03:47:57
(UTC+00:00)

FO-99 - Pass Details

Date: 25 January 2021
Orbit: 473 x 506 km, 97.2° (Epoch: 08 March)

Event Time Altitude Azimuth Distance (km) Brightness Sun altitude
Exits shadow 06:25:35 14° 343° (NNW) 1,488 ? -27.9°
Drops below altitude 10° 06:26:06 10° 343° (NNW) 1,699 ? -28.0°
Sets 06:28:10 0° 344° (NNW) 2,580 ? -28.2°
